Location: Saint-Maurice-d�Ard�che
(44.5216°N, 4.4002°E)
Time: 22:57:59
(UTC+00:00)

COSMOS 2455 - Pass Details

Date: 30 March 2020
Orbit: 899 x 910 km, 67.1° (Epoch: 05 June)

Event Time Altitude Azimuth Distance (km) Brightness Sun altitude
Rises 21:07:24 0° 332° (NNW) 3,543 7.0 -29.7°
Reaches altitude 10° 21:10:05 10° 339° (NNW) 2,600 6.0 -30.0°
Enters shadow 21:15:06 40° 33° (NNE) 1,322 3.7 -30.6°
